User: anonymous   Login
Location: Drummondville
(45.8830°N, 72.4830°W)
Time: 19:36:49
(UTC-04:00)
Language:

Envisat - Orbit

View from above orbital plane
View from above orbital plane
View from above satellite
View from above satellite

Ground track
Ground track

The orbit data is extracted from the following two-line orbital elements,

1 27386U 02009A   18140.63098258 -.00000019 +00000-0 +72536-5 0  9991
2 27386 098.1867 175.9869 0001298 088.6509 075.5017 14.37922198849493
Epoch (UTC): 20 May 2018 15:08:36
Eccentricity: 0.0001298
inclination: 98.1867°
perigee height: 764 km
apogee height: 766 km
right ascension of ascending node: 175.9869°
argument of perigee: 88.6509°
revolutions per day: 14.37922198
mean anomaly at epoch: 75.5017°
orbit number at epoch: 84949

The dashed part of the orbit path shows where the satellite is in the earth's shadow,  

DLR